Regional Weather Roundup
Issued by NWS

Home | Current Version | Previous Version | Graphics & Text | Print | Product List | Glossary On
Versions: 1 2 3 4 5 6 7 8 9 10 11 12 13 14 15 16 17 18 19 20 21 22 23 24 25 26 27 28 29 30 31 32 33 34 35 36 37 38 39 40 41 42 43 44 45 46 47 48 49 50
978
ASUS45 KBOU 302207
RWRCO

WEATHER ROUNDUP FOR COLORADO
NATIONAL WEATHER SERVICE DENVER/BOULDER CO
400 PM MDT SUN APR 30 2017

NOTE: "FAIR" INDICATES FEW OR NO CLOUDS BELOW 12000 FEET WITH NO
SIGNIFICANT WEATHER AND/OR OBSTRUCTIONS TO VISIBILITY.

COZ001>005-013-030-031-302300-
...NORTHWEST COLORADO...

CITY           SKY/WX    TMP DP  RH WIND       PRES   REMARKS
CRAIG          CLOUDY    53  22  29 SW13G21   30.03F
HAYDEN         PTSUNNY   48  21  34 W12       30.03F
MEEKER         CLOUDY    54  21  27 MISG      30.05F
MOUNT WERNER   NOT AVBL
STEAMBOAT SPGS CLOUDY    46  24  42 W6        30.04F
WALDEN           N/A     41  16  36 NW20G25   30.04F
$$

COZ006>008-011-302300-
...WEST CENTRAL VALLEYS...

CITY           SKY/WX    TMP DP  RH WIND       PRES   REMARKS
GRAND JUNCTION FAIR      61  17  18 W9        30.02F
MONTROSE       FAIR      54  17  23 S5        30.07F
EAGLE          PTSUNNY   54  14  20 NW13G20   30.05S
RIFLE          PTSUNNY   60  14  16 VRB6G23   30.02F
DELTA          FAIR      64  17  16 W21G28    30.02F
NUCLA          FAIR      59  10  14 W13       30.08F
$$

COZ017>023-064>068-302300-
...SOUTHWEST COLORADO...

CITY           SKY/WX    TMP DP  RH WIND       PRES   REMARKS
DURANGO        FAIR      62  12  14 W23G33    29.94F
CORTEZ         FAIR      59  16  18 NW8G18    30.03F
PAGOSA SPRINGS FAIR      56   8  15 S10G20    29.98F
TELLURIDE      FAIR      43  17  34 NW3       30.14S
WOLF CREEK PAS FAIR      32   5  32 W7G16     30.17R WCI  26
$$

COZ009-010-012-014-032>034-037-058>063-302300-
...CENTRAL COLORADO...

CITY           SKY/WX    TMP DP  RH WIND       PRES   REMARKS
ASPEN          FAIR      47  18  31 NW14G24   30.04S
BUENA VISTA    FAIR      47   7  19 NW20G33   29.94R
COPPER MTN     LGT SNOW  32  12  43 MISG      30.08R
BERTHOUD PASS  HVY SNOW  18   5  57 NW38G45   30.02R VSB<1/4 WCI  -4
COTTONWOOD PAS FAIR      41  10  28 W24G39    29.98R
GUNNISON       FAIR      50  13  22 W15G22    30.03R
KREMMLING      FAIR      52  21  30 NW13G22   30.06S
LEADVILLE      FAIR      38  14  37 NW25G37   30.03R
SALIDA         FAIR      57   8  14 N22G28    29.98S
SUNLIGHT       CLOUDY    32  16  51 NW7G18    30.18S WCI  26
WILKERSON PASS FAIR      34  14  44 NW12G21   30.02S WCI  25
$$

COZ069>075-302300-
...SAN LUIS VALLEY/SANGRE DE CRISTO MOUNTAINS...

CITY           SKY/WX    TMP DP  RH WIND       PRES   REMARKS
ALAMOSA        FAIR      57   6  13 N23G31    29.90F
LA VETA PASS   FAIR      43  19  39 W9G18     30.08S
SAGUACHE       FAIR      55   5  13 N26G36    29.92F
$$

COZ035-036-038>040-302300-
...NORTHERN COLORADO FRONT RANGE...

CITY           SKY/WX    TMP DP  RH WIND       PRES   REMARKS
DENVER INTL AP FAIR      60  19  20 N31G43    29.83F
DMNS CITY PARK   N/A     59  20  22 NE12G21   29.85S
AURORA         MOSUNNY   57  20  24 N30G39    29.85F
FRONT RANGE AP MOSUNNY   57  27  30 NW33G43   29.84F
ERIE MUNI ARPT FAIR      62  18  18 W8        29.84F
BOULDER MUN AP FAIR      59  23  25 SE5       29.84F
CENTENNIAL     FAIR      50  25  37 W10       29.86F
BROOMFIELD     MOSUNNY   57  25  28 SW3       29.86F
FORT COLLINS   FAIR      61  22  22 NW24G38   29.85F
LONGMONT       FAIR      67  16  13 NW13G24   29.85S
$$

COZ041-046-047-076>085-087-088-302300-
...PIKES PEAK/PALMER DIVIDE AND SOUTHERN FOOTHILLS...

CITY           SKY/WX    TMP DP  RH WIND       PRES   REMARKS
COLO. SPRINGS  FAIR      54  16  22 N24G39    29.87S
A. F. ACADEMY  FAIR      48  17  29 N21G29    29.87S
SCHRIEVER AFB  FAIR      50  19  28 N26G38    29.87F
ELLICOTT       FAIR     N/A N/A N/A N32G40    29.83F
FALCON         FAIR      49  18  29 NW20G30   29.89S
FORT CARSON    FAIR      56  19  24 N18G29    29.85S
LIMON          FAIR      54  20  26 N38G48    29.79F
MONUMENT HILL  FAIR      43  25  49 N13G20    29.90F
TRINIDAD       FAIR      46  23  40 N7        29.90F
$$

COZ042>045-048>051-090-091-302300-
...NORTHEAST COLORADO...

CITY           SKY/WX    TMP DP  RH WIND       PRES   REMARKS
GREELEY ARPT   FAIR      63  21  20 NW30G38   29.82F
AKRON          FAIR      54  16  22 N33G46    29.80F
BURLINGTON     NOT AVBL
WRAY           NOT AVBL
STERLING       FAIR      57  21  24 N24G35    29.81F
HOLYOKE        FAIR      54  21  28 N35       29.78F
FORT MORGAN    FAIR      58  18  20 N29G40    29.83F
$$

COZ086-089-092>099-302300-
...SOUTHEAST COLORADO...

CITY           SKY/WX    TMP DP  RH WIND       PRES   REMARKS
PUEBLO         FAIR      54  32  43 SW15      29.85F
LA JUNTA       FAIR      58  31  35 NW24G41   29.80F
LAMAR          FAIR      56  26  31 N30G44    29.73F
SPRINGFIELD      N/A     39  30  70 NW18      29.77R
$$




USA.gov is the U.S. government's official web portal to all federal, state and local government web resources and services.